Flag for U.S.A. Weather past 2 weeks in Anchorage, Alaska, U.S.A.

Now
55 °F

Clear.


Feels Like: 55 °F
Forecast: 53 / 71 °F
Wind: No wind

Location: Lake Hood Seaplane

Current Time: Aug 20, 2014 at 5:37:59 AM

Latest Report: Aug 20, 2014 at 4:53 AM


Visibility: 10 mi

Pressure: 30.04 "Hg

Humidity: 87%

Dew point: 51 °F

Location of AnchorageLocation

Historic Weather in Anchorage — Graph

°F

Anchorage temperature yesterday

Maximum temperature yesterday: 70 °F (at 4:53 PM)
Minimum temperature yesterday: 52 °F (at 5:53 AM)
Average temperature yesterday: 61 °F

Past Weeks' High & Low Weather Summary

 TemperatureHumidityPressure
High70 °F (Aug 10, 4:53 PM)93% (Aug 5, 4:53 AM)30.03 "Hg (Aug 5, 4:53 AM)
Low52 °F (Aug 19, 5:53 AM)49% (Aug 5, 4:53 PM)29.58 "Hg (Aug 16, 5:53 PM)
Average60 °F73%29.73 "Hg
* Reported Aug 5 3:53 AM — Aug 20 3:53 AM, Anchorage, Weather by CustomWeather, © 2014

Note: Actual official high and low records may vary slightly from our data, if they occured in-between our weather recording intervals... More about our weather records

Advertising

Anchorage weather history for previous 24 hours

 ConditionsComfort  
Time TempWeatherWind HumidityBarometerVisibility
3:53 AM
Aug 20
56 °FPassing clouds.No wind87%30.03 "Hg10 mi
2:53 AM57 °FPassing clouds.3 mph87%30.03 "Hg10 mi
1:53 AM58 °FPassing clouds.3 mph84%30.02 "Hg10 mi
12:53 AM59 °FClear.3 mph81%30.01 "Hg10 mi
11:53 PM
Aug 19
61 °FPartly cloudy.5 mph70%29.99 "Hg10 mi
10:53 PM61 °FClear.3 mph70%29.98 "Hg10 mi
9:53 PM62 °FSunny.No wind73%29.97 "Hg10 mi
8:53 PM65 °FScattered clouds.6 mph70%29.96 "Hg10 mi
7:53 PM68 °FSunny.6 mph59%29.95 "Hg10 mi
6:53 PM69 °FSunny.7 mph57%29.95 "Hg10 mi
5:53 PM70 °FSunny.3 mph55%29.96 "Hg10 mi
4:53 PM70 °FSunny.6 mph53%29.96 "Hg10 mi
3:53 PM69 °FSunny.No wind57%29.98 "Hg10 mi
2:53 PM67 °FSunny.6 mph59%29.98 "Hg10 mi
1:53 PM66 °FSunny.No wind63%30.00 "Hg10 mi
12:53 PM66 °FSunny.6 mph61%30.00 "Hg10 mi
11:53 AM64 °FSunny.3 mph63%30.01 "Hg10 mi
10:53 AM61 °FSunny.3 mph70%30.01 "Hg10 mi
9:53 AM57 °FSunny.3 mph78%30.01 "Hg10 mi
8:53 AM54 °FSunny.5 mph83%30.01 "Hg10 mi
7:53 AM53 °FSunny.No wind86%30.01 "Hg10 mi
6:53 AM52 °FClear.No wind89%30.01 "Hg8 mi
5:53 AM52 °FClear.No wind89%30.01 "Hg7 mi
Weather by CustomWeather, © 2014

See weather overviewHow to use our weather pages